Wind_Speed
13 13 14 16 17 16 14 13 12 9 6 3 3 4 5 9 11 11 11 12 16 24 33 38 39 37 35 34 32 30 28 27 27 27 27 27 26 25 24 24 23 22 21 20 19 17 16 15 14 13 12 11 10 9 9 10 9 10 11 12 12 12 12 13 13 14 14 13 12 13 13 16 19 22 23 24 23 22 21 19 17 16 16 17 19
13 13 14 16 16 16 15 15 15 13 10 7 5 4 4 6 9 10 10 10 13 19 29 36 39 38 36 35 33 32 29 28 27 27 28 27 27 26 25 25 25 25 23 22 21 20 18 17 16 14 13 12 11 10 10 10 10 10 11 11 12 12 13 13 14 14 14 13 12 13 13 14 17 20 23 24 24 23 21 19 18 16 16 16 18
15 14 13 14 15 14 14 15 15 14 12 9 7 4 3 4 6 8 8 8 11 15 23 32 37 38 36 35 34 32 30 29 28 27 27 27 28 27 27 26 26 26 25 24 23 22 21 19 18 16 15 13 12 12 11 11 11 11 11 12 12 13 13 14 14 14 15 14 13 13 13 14 16 19 21 23 24 23 22 20 18 16 16 16 17
16 12 11 13 14 14 15 15 14 12 11 11 9 5 3 5 5 6 7 7 9 12 19 27 33 35 36 35 34 33 31 30 29 27 27 27 27 28 28 27 26 26 26 26 25 24 22 21 19 18 17 15 14 13 13 12 12 12 12 12 12 13 14 14 15 15 15 14 13 14 14 14 16 18 20 22 23 24 22 20 18 16 16 16 16
14 12 12 13 14 15 16 15 14 14 13 12 11 7 6 7 7 7 8 9 9 10 14 21 27 31 33 34 34 34 33 31 30 29 27 27 27 27 28 28 27 26 26 26 26 25 24 22 20 20 18 17 16 15 14 14 13 13 13 13 13 14 14 14 15 15 15 15 14 14 15 15 16 17 19 20 22 23 23 21 19 17 16 15 16
15 15 15 16 16 16 16 16 16 16 15 14 13 12 11 11 10 9 8 9 10 10 12 17 20 24 28 31 31 32 33 32 31 30 29 28 27 27 27 27 27 26 25 25 26 25 24 22 21 21 20 18 18 17 16 16 15 15 14 14 14 15 15 15 15 15 15 16 15 15 15 15 16 17 19 20 21 22 23 22 20 18 16 15 15
17 16 17 18 17 16 17 17 17 16 16 16 16 16 16 15 13 12 9 8 10 11 11 13 14 18 23 27 28 28 30 32 33 32 31 30 29 28 27 27 27 26 25 24 25 25 24 23 22 21 21 21 21 20 19 18 18 17 16 16 16 16 16 16 16 16 16 16 16 16 16 16 16 17 18 20 21 22 23 22 20 18 17 15 15
18 18 18 19 17 17 19 19 18 17 17 17 17 17 18 20 17 14 11 8 9 9 8 8 9 12 17 21 25 25 26 28 32 34 33 32 31 30 29 28 27 27 26 25 25 25 25 25 24 23 23 23 23 22 22 21 20 19 18 17 17 17 17 17 17 17 16 17 17 17 17 17 17 18 18 19 20 21 22 22 21 19 17 15 14
18 19 19 19 19 19 19 19 18 17 18 17 17 17 17 21 19 12 10 8 7 8 8 6 6 7 11 15 19 21 22 24 28 31 34 34 33 32 31 30 29 28 28 27 26 26 26 26 26 25 25 25 25 24 24 24 23 22 20 19 18 18 18 18 18 18 18 18 18 17 17 18 18 18 19 19 20 21 21 21 21 19 17 15 14
20 19 18 19 21 21 20 20 19 18 17 16 17 17 14 15 16 10 10 9 7 9 10 8 7 7 8 10 13 16 18 21 23 26 29 33 35 34 33 32 31 30 29 29 28 28 28 28 28 27 26 26 26 25 25 25 25 24 22 20 19 18 18 19 19 20 19 19 19 18 18 19 19 19 20 20 20 20 21 21 21 20 18 15 14
24 20 18 18 20 21 21 22 22 19 17 16 17 17 14 13 11 8 11 10 9 11 12 12 11 10 10 10 12 13 14 16 18 20 22 26 31 33 34 34 33 32 31 30 30 30 30 30 29 28 27 27 27 27 27 27 26 25 24 21 20 19 19 19 20 20 20 20 20 19 19 19 20 20 20 21 21 20 21 21 21 20 19 16 14
26 23 19 19 20 21 22 23 23 22 19 18 19 19 17 15 13 12 12 11 11 13 14 15 15 14 13 13 14 13 13 13 14 16 17 20 24 27 30 32 33 33 32 32 32 32 32 32 31 31 30 30 30 30 29 29 28 27 25 22 21 21 20 20 20 20 20 20 20 20 20 20 21 21 21 21 21 21 21 21 21 21 20 17 15
24 25 23 21 21 22 22 22 24 24 22 20 20 20 19 17 17 16 15 13 14 16 17 18 18 17 16 15 15 15 14 14 14 15 16 17 20 22 24 27 29 30 31 31 32 33 34 34 34 33 33 33 33 33 32 30 28 27 25 23 22 22 22 22 21 21 20 20 21 21 21 21 22 22 22 22 22 22 22 21 21 21 20 18 16
18 22 24 24 24 23 22 21 23 25 23 21 20 20 19 19 19 18 18 17 18 20 20 20 20 19 18 18 18 18 16 16 16 15 16 17 18 19 21 22 24 27 29 29 30 31 32 33 34 34 34 34 33 33 32 30 28 27 26 24 23 23 23 23 23 23 21 20 21 22 22 22 23 23 23 23 23 23 23 22 21 21 20 19 17
13 15 19 22 25 26 26 25 25 25 24 22 22 21 21 21 21 20 20 20 21 23 22 21 21 22 21 21 22 22 21 20 18 16 16 17 16 17 18 19 21 24 26 27 27 27 28 30 31 31 32 32 32 31 31 30 29 27 26 25 24 24 24 25 24 25 23 22 22 23 24 24 24 24 24 24 24 24 24 23 22 21 21 20 18
10 12 14 17 20 24 26 28 29 29 28 27 26 26 26 26 25 25 24 24 25 25 23 22 23 25 24 24 25 26 26 24 21 19 18 19 18 18 19 19 20 21 23 24 24 25 26 26 27 28 29 30 30 30 30 30 29 28 27 27 26 25 25 26 26 27 27 25 24 24 25 25 25 25 25 25 25 25 25 25 23 21 21 21 20
9 10 12 14 16 19 22 25 27 28 29 29 29 29 30 30 29 28 28 28 27 26 24 24 26 27 26 25 27 29 28 26 25 24 23 22 20 19 20 19 19 19 20 21 22 23 24 25 25 25 26 26 27 27 27 28 29 30 29 29 28 28 27 27 28 29 30 29 27 26 26 27 27 27 27 26 26 26 26 26 24 22 21 21 21
6 8 10 12 14 16 18 20 22 24 26 27 28 28 28 29 30 29 29 29 28 27 27 26 27 28 28 27 28 29 28 27 28 28 26 24 22 20 20 20 20 21 21 21 21 21 20 20 20 21 22 24 24 25 25 25 27 28 30 30 30 30 29 29 29 30 32 33 32 29 28 29 29 28 28 28 27 27 27 27 26 23 21 22 21
4 5 7 9 12 14 16 17 19 20 22 23 24 25 26 27 28 28 29 29 29 29 29 29 28 29 30 29 29 30 29 27 27 28 27 26 24 22 21 21 22 23 23 21 20 19 18 16 16 16 17 18 20 21 23 24 25 25 27 29 31 32 32 31 31 32 33 35 35 33 31 31 31 30 29 29 28 27 27 27 27 24 22 22 22
4 5 6 7 9 11 13 14 16 18 19 21 22 23 25 26 27 28 28 28 29 29 30 31 31 31 32 31 30 32 33 31 30 31 31 30 28 25 24 23 23 23 23 21 20 20 19 18 18 17 16 15 15 16 19 22 24 25 26 27 30 32 32 32 32 33 34 36 36 36 35 33 33 32 31 30 30 28 28 28 27 26 23 23 23
7 7 7 7 8 9 10 11 13 14 16 17 19 20 22 24 26 28 29 29 29 30 31 32 32 33 33 33 32 33 35 35 33 33 33 32 31 28 26 26 25 25 24 23 22 22 21 21 21 20 18 15 14 14 15 18 21 24 26 27 28 30 30 31 32 32 33 34 35 36 37 36 34 34 33 32 31 29 28 28 27 26 24 23 24
9 9 8 8 9 9 10 11 12 12 13 14 15 16 18 20 22 25 27 29 30 31 32 32 33 33 34 35 36 36 37 37 36 34 33 32 32 30 28 29 29 27 27 26 26 25 24 24 23 21 18 15 14 13 13 15 17 20 24 26 28 29 29 30 31 31 30 31 32 33 36 38 36 35 35 34 32 30 29 28 27 26 24 23 24
10 11 11 11 10 10 10 11 11 12 13 13 14 14 15 16 18 20 23 25 28 29 31 33 33 34 34 35 36 36 37 38 37 36 35 34 33 32 30 31 32 32 31 30 30 30 30 29 26 24 22 18 15 13 12 13 14 16 19 22 25 28 29 29 29 29 29 29 29 30 33 36 36 35 35 35 33 31 29 28 27 26 25 23 24
11 12 12 12 13 12 12 12 12 12 12 13 14 14 14 15 16 18 19 21 23 25 27 30 32 33 35 35 35 34 34 33 33 34 35 35 35 35 32 31 34 35 34 35 35 34 35 34 32 29 26 22 18 16 16 16 16 16 17 18 20 24 27 29 28 29 29 29 28 28 30 34 35 35 35 34 33 32 30 29 27 26 25 24 24
12 12 13 13 14 14 14 14 14 14 14 14 14 14 15 15 16 17 18 19 20 21 23 25 27 29 32 34 34 34 33 31 30 30 31 32 34 36 35 33 35 37 37 38 39 38 38 37 36 33 30 27 24 22 21 20 18 19 18 18 19 21 24 27 28 29 30 29 28 27 28 32 34 34 33 33 33 32 30 29 27 26 25 24 23
12 12 13 14 16 16 17 17 16 16 16 16 15 15 15 16 16 17 17 18 18 19 20 21 23 24 27 29 31 32 32 31 31 31 31 30 31 32 33 35 37 39 39 40 41 41 41 39 38 35 33 32 29 26 24 21 22 22 19 18 18 20 22 24 26 29 30 30 29 28 28 31 33 33 32 31 31 31 30 29 28 26 25 24 23
12 12 13 14 15 16 17 18 18 18 17 17 17 17 16 17 17 17 17 18 18 18 18 19 20 21 23 24 26 28 29 30 31 33 33 32 31 30 32 35 37 38 40 40 41 42 40 39 40 39 37 35 32 30 28 25 25 25 23 19 18 18 19 21 23 26 29 31 30 29 29 30 32 31 31 30 30 31 30 29 27 25 25 24 23
13 13 13 13 13 14 15 16 18 18 19 19 19 18 18 18 19 19 19 19 19 19 19 19 19 20 21 22 23 24 26 29 30 32 32 33 33 33 34 35 36 37 38 39 40 40 38 37 39 39 38 37 35 32 32 31 29 29 27 24 21 19 19 21 22 23 26 30 31 31 31 31 31 31 31 30 30 31 31 29 27 26 25 24 24
15 14 14 14 14 14 14 15 17 18 19 19 19 19 19 19 20 21 21 21 20 20 21 21 21 21 22 22 23 23 24 27 29 30 31 33 34 35 36 36 36 38 39 39 38 37 36 36 36 35 36 38 38 36 35 35 34 33 31 28 27 24 22 22 22 21 23 26 29 31 32 32 32 32 31 31 31 32 31 29 27 26 25 24 24
17 17 16 16 16 16 16 16 17 18 18 19 19 19 19 20 20 21 22 22 22 22 23 23 24 24 24 24 25 24 25 27 28 29 30 33 35 36 37 38 39 39 39 38 38 36 35 36 35 34 35 37 40 40 39 38 37 37 37 34 32 30 25 23 23 21 21 23 24 27 30 32 33 33 32 31 32 32 31 29 27 26 25 25 24
19 19 19 19 19 19 19 19 19 19 19 19 19 19 20 20 21 22 22 23 23 23 24 25 25 26 26 26 26 27 27 28 28 29 31 32 35 36 36 37 40 42 39 38 39 37 35 36 37 35 35 36 39 43 42 40 38 37 38 38 36 32 28 24 23 22 21 21 21 22 25 28 31 33 32 32 33 33 31 28 27 26 26 25 24
19 19 20 20 21 21 21 21 21 20 20 20 20 20 20 21 22 23 24 25 25 25 25 26 27 28 28 28 28 28 29 30 30 31 32 32 34 35 35 35 37 39 40 40 42 40 35 36 38 36 34 34 37 43 45 44 42 38 37 38 38 36 33 29 25 23 22 22 23 23 23 25 28 30 31 32 33 33 31 29 28 27 26 25 24
19 19 20 21 21 22 22 22 22 22 22 22 22 22 22 22 23 25 26 27 28 28 28 29 29 29 30 29 29 30 31 31 32 32 33 33 34 35 35 34 33 33 35 38 42 41 37 35 37 37 36 36 38 42 45 47 46 42 38 38 39 38 38 35 30 26 25 25 26 26 25 24 25 26 28 30 31 32 32 30 29 27 26 25 24
20 20 21 21 22 22 22 23 23 23 23 23 23 23 23 24 25 25 27 28 29 31 32 32 32 33 32 31 31 31 32 33 32 32 33 34 35 36 35 35 34 30 29 32 36 38 36 35 36 37 38 39 40 42 44 46 47 45 42 41 42 41 39 38 34 31 31 29 28 28 27 24 23 23 25 27 29 31 31 31 30 28 26 25 24
21 21 22 22 22 23 23 24 24 24 24 24 24 24 24 25 25 26 27 28 29 31 33 34 35 36 36 35 33 33 34 34 34 33 33 33 35 36 36 36 36 32 30 31 33 34 35 34 34 35 38 40 41 40 41 43 45 46 44 44 46 46 43 41 38 37 38 35 31 29 27 24 22 21 21 23 26 28 30 31 30 28 27 26 25
22 22 23 23 23 24 24 25 25 25 25 25 26 26 27 27 28 28 29 30 30 31 32 34 36 37 38 37 36 35 35 36 35 34 34 34 34 35 36 36 37 36 34 34 34 33 33 33 31 32 35 39 41 40 40 40 42 43 44 45 46 46 45 44 43 41 41 40 35 30 27 25 23 22 20 21 22 26 29 30 30 29 28 27 26
23 24 24 24 25 25 25 26 26 26 26 27 28 29 29 30 30 31 31 32 32 32 33 34 35 37 38 38 38 38 38 37 36 35 35 35 34 35 35 35 36 37 37 37 36 34 33 32 31 32 33 36 39 40 38 38 40 41 43 45 45 45 44 44 45 45 44 42 39 34 29 27 26 25 24 22 22 23 26 28 30 30 30 29 27
25 25 25 26 26 26 26 26 26 27 28 29 30 31 32 33 33 34 34 35 34 34 34 34 35 36 38 39 39 39 40 39 38 37 36 37 36 35 34 34 34 36 39 39 38 37 35 33 32 32 33 33 36 39 37 36 39 42 43 44 45 44 44 44 46 46 45 43 42 39 34 32 32 31 30 28 26 25 25 26 28 29 30 30 28
26 27 27 27 27 27 27 27 27 28 29 31 32 33 34 35 37 38 38 38 38 37 36 36 36 37 38 39 39 40 40 41 41 39 38 38 38 37 35 34 34 35 37 39 40 39 38 36 32 31 32 33 35 38 38 37 39 41 42 42 43 42 42 43 44 45 44 42 42 41 40 38 36 35 35 34 32 29 28 26 26 27 29 28 27
28 29 29 29 29 28 28 28 29 30 31 32 34 35 36 38 40 41 41 41 40 39 38 37 37 37 38 39 40 40 41 42 42 41 40 39 39 39 37 36 35 34 35 37 40 42 41 39 36 33 32 33 34 35 36 37 38 37 38 38 39 38 37 38 39 41 41 40 40 41 42 41 40 40 40 39 36 34 32 29 27 28 28 27 28
30 30 30 30 30 30 29 30 30 31 32 34 35 37 39 41 42 42 42 41 40 40 39 38 37 37 38 39 40 41 41 42 43 42 42 41 40 40 39 38 37 36 35 36 38 42 43 42 39 36 34 34 34 33 34 35 35 35 35 36 37 36 34 34 35 36 37 37 37 38 40 42 43 44 44 41 38 36 34 30 28 28 27 29 32
32 32 32 32 32 31 31 31 32 33 35 36 37 39 41 42 42 42 42 42 41 40 40 39 38 38 38 39 40 41 41 42 43 43 42 42 42 42 41 40 40 39 38 37 37 39 42 44 43 40 38 37 35 34 34 33 34 35 36 36 36 36 36 35 34 33 33 33 35 36 38 39 41 42 43 41 39 39 36 30 27 28 27 29 33
33 33 32 33 33 33 34 34 34 36 37 38 40 41 41 42 42 43 43 43 42 42 41 40 40 39 39 39 39 40 41 41 42 43 43 43 43 43 42 41 41 41 41 41 39 38 40 43 45 45 43 41 39 38 36 33 34 36 37 38 37 37 37 36 35 34 33 32 34 36 36 36 38 40 41 42 42 42 39 31 25 26 28 28 30
33 33 33 34 35 36 36 37 37 38 40 41 42 42 42 42 43 43 44 44 43 43 42 42 41 41 40 40 40 40 41 41 42 43 44 44 43 43 44 43 42 42 43 43 43 41 39 40 43 45 47 46 43 42 39 36 36 37 39 40 39 38 37 37 37 36 34 33 35 35 35 35 36 37 38 40 41 42 42 38 32 28 27 28 28
32 33 34 35 36 37 38 39 40 41 42 42 42 43 43 43 43 44 44 44 44 44 43 42 42 42 42 42 42 41 42 42 43 43 44 45 45 45 45 45 45 44 44 45 45 44 42 41 42 43 45 47 47 45 43 40 38 38 40 41 39 38 38 38 36 33 32 33 34 33 33 33 33 34 35 38 39 39 41 43 38 31 27 28 28
33 33 34 35 36 38 39 40 41 42 42 42 42 43 43 43 43 44 44 45 45 44 44 43 42 42 42 43 43 43 43 44 44 45 46 46 46 46 47 47 47 46 45 46 46 45 45 45 44 42 41 44 48 48 47 45 42 41 42 41 40 38 37 36 35 32 31 32 32 32 33 33 32 32 33 34 35 38 39 38 34 30 29 29 29
33 34 34 35 36 38 39 41 42 42 41 41 41 42 42 43 43 44 45 46 46 45 44 43 43 43 43 43 44 45 45 45 46 47 48 48 49 48 48 48 48 48 47 47 46 46 47 47 47 45 41 41 44 47 49 51 48 45 44 43 41 39 37 35 34 33 32 33 34 35 36 35 33 31 31 30 31 36 38 35 31 30 30 30 30
32 33 34 35 36 38 39 40 40 41 41 41 41 42 42 43 44 45 46 47 47 46 45 44 44 44 44 44 45 45 46 47 48 49 50 51 51 51 50 50 49 49 49 48 48 47 48 48 49 48 44 41 42 44 47 51 52 50 48 46 45 43 41 38 36 35 35 34 35 36 36 36 34 30 28 29 32 35 36 34 33 33 33 32 32
32 34 34 35 36 36 38 38 40 40 40 40 40 41 41 42 44 46 47 47 48 48 47 46 46 46 46 46 46 47 47 47 48 49 50 52 54 54 54 53 52 51 50 49 49 49 49 49 50 50 47 43 42 43 44 46 51 53 53 52 50 47 45 42 39 37 35 34 34 33 34 35 34 30 28 29 32 35 36 35 34 34 35 36 36
33 33 34 34 35 36 37 38 40 40 40 39 39 39 40 42 43 45 47 48 49 49 49 49 48 48 49 49 49 50 50 50 50 50 51 53 55 56 57 57 56 55 52 51 51 50 50 49 50 51 51 48 45 43 42 43 45 50 54 56 53 51 49 47 43 40 37 35 32 31 32 33 33 31 29 28 30 32 35 35 33 33 35 38 40
32 33 34 34 35 36 37 38 38 39 38 38 38 39 40 41 43 45 47 49 50 51 51 51 51 51 52 52 52 53 53 52 52 52 52 54 56 58 59 60 60 58 56 54 53 52 52 52 51 52 53 52 49 45 43 41 42 45 50 53 54 54 53 50 47 45 43 39 33 31 31 31 31 32 30 29 31 33 34 34 33 32 34 37 39
Wind_Direction
226 211 208 212 210 212 212 217 228 231 231 237 225 219 239 246 235 224 223 221 216 212 209 209 212 215 216 215 216 217 215 212 210 210 209 210 214 216 216 218 220 221 222 224 227 229 232 234 235 238 242 243 246 253 263 272 277 281 285 291 295 298 302 306 311 316 323 327 331 340 350 357 0 4 7 7 7 9 10 11 12 12 12 14 14
233 216 210 213 214 216 218 223 227 228 235 253 257 230 227 253 250 234 223 220 213 210 209 209 212 215 218 218 218 219 218 217 215 212 211 211 214 217 220 220 221 222 224 226 229 232 235 237 239 241 245 248 250 254 258 264 270 276 281 287 292 295 299 302 305 311 318 321 323 332 342 350 356 1 5 6 5 5 8 9 9 9 8 10 11
237 220 212 214 217 218 218 223 224 224 226 242 260 245 213 238 259 244 225 224 217 210 208 209 213 216 219 222 222 222 222 221 220 217 214 213 214 216 221 224 224 224 225 227 229 232 235 238 242 243 246 250 253 254 255 259 264 268 274 281 287 291 294 298 301 306 312 315 316 324 333 341 349 357 1 3 4 4 4 6 6 6 5 5 8
244 232 219 214 214 216 217 220 221 221 218 229 244 240 218 221 236 232 210 210 211 207 208 209 213 217 221 225 226 225 225 225 225 223 219 217 216 217 221 225 228 228 228 228 230 232 234 237 242 245 247 249 251 253 253 256 260 262 267 273 279 284 289 293 296 300 307 310 310 317 325 332 341 349 356 359 2 3 1 2 4 4 2 2 4
251 249 239 222 213 213 215 218 219 219 218 220 224 224 220 216 222 224 213 211 207 201 205 207 211 217 223 227 230 231 229 228 228 228 225 221 220 219 221 225 229 232 232 231 231 232 233 234 238 244 247 247 248 250 251 253 256 258 261 265 270 276 282 287 291 295 302 305 305 310 317 324 332 341 348 353 358 1 360 359 360 1 0 359 360
250 247 243 233 222 217 213 214 217 218 222 223 219 221 221 219 225 229 219 216 221 219 208 204 207 215 222 228 232 235 234 232 230 230 230 228 224 223 223 224 228 232 234 234 233 232 233 232 233 237 244 246 247 247 250 253 255 257 257 259 263 268 274 279 284 289 296 299 301 304 309 316 325 333 340 346 351 356 358 356 356 358 358 356 356
252 247 243 238 228 221 217 215 216 219 226 230 230 228 226 224 225 226 217 204 213 224 215 206 206 213 221 227 232 236 238 237 235 233 233 233 230 228 226 226 228 231 234 234 233 232 232 232 231 233 239 244 248 250 251 253 256 257 257 257 259 263 267 272 278 283 289 294 295 298 303 309 317 325 333 339 344 349 354 354 353 354 355 354 353
250 250 248 247 238 228 227 224 222 225 228 231 235 235 238 238 227 214 207 199 203 219 226 215 215 222 225 229 233 237 240 241 240 238 237 237 236 233 231 230 229 230 233 233 232 231 231 233 233 233 236 241 246 252 256 259 260 260 260 258 258 261 264 267 272 277 282 287 289 292 297 303 310 318 326 332 337 342 347 351 351 349 350 351 350
243 248 251 253 248 237 235 235 232 231 229 231 234 238 252 245 226 209 202 201 207 225 243 236 226 240 238 236 237 240 244 245 245 244 241 240 240 239 237 235 234 233 234 234 233 232 232 234 236 236 237 240 244 249 257 263 265 266 265 262 260 262 264 266 270 274 278 281 284 287 292 298 305 312 319 325 330 335 340 345 347 344 345 348 348
238 244 247 250 251 245 243 245 244 238 230 232 233 238 252 230 206 206 214 210 214 229 249 253 242 248 251 247 244 243 246 248 248 248 246 244 242 243 243 241 240 239 238 238 237 236 236 237 240 241 242 243 245 248 253 260 265 268 269 266 263 262 264 266 269 272 275 278 281 284 288 294 300 306 313 318 322 328 333 338 342 341 339 343 346
233 238 241 244 247 247 245 246 247 244 235 236 237 239 247 232 213 225 231 221 221 228 244 252 244 246 251 252 251 248 248 250 252 252 249 247 245 244 246 246 246 244 243 242 241 241 242 242 244 245 246 247 248 249 251 255 260 264 266 265 262 261 262 264 266 269 272 275 279 281 285 290 295 301 307 312 316 321 326 331 336 337 336 337 341
230 233 237 238 240 243 242 243 246 247 243 241 243 242 243 245 243 241 238 228 225 233 248 252 244 243 250 253 254 255 252 251 250 249 248 247 247 246 246 248 249 249 248 247 247 246 246 247 247 248 249 250 251 252 253 254 255 257 259 260 259 258 258 260 262 264 268 272 275 278 282 286 291 296 301 306 310 315 320 324 329 333 333 332 335
228 230 232 234 238 241 239 240 245 247 248 244 242 243 244 246 246 244 243 237 235 242 250 252 246 245 251 253 254 253 253 255 252 249 246 245 248 248 247 248 250 251 251 250 250 251 251 251 251 251 252 252 253 255 255 253 253 252 252 254 255 255 256 258 259 261 263 268 272 275 279 283 287 292 296 300 305 309 314 318 323 328 329 328 328
231 230 232 234 238 241 239 239 243 245 247 244 240 242 246 248 249 248 247 244 243 245 249 251 247 247 250 251 253 254 255 259 257 254 253 250 252 255 256 254 253 253 252 252 252 252 253 253 254 254 254 254 255 256 256 253 251 250 250 251 252 253 255 257 259 260 259 262 268 273 276 280 283 287 291 295 300 304 308 313 317 322 325 324 322
236 234 234 235 238 240 242 242 243 243 243 243 242 245 248 250 253 254 252 249 244 241 242 246 245 245 248 251 255 257 259 261 259 255 254 254 258 265 270 268 263 260 257 255 254 254 254 254 255 255 255 256 256 256 255 254 251 250 250 251 252 253 255 258 260 263 262 261 265 270 274 277 280 284 287 291 295 300 303 307 312 317 320 320 317
236 236 234 235 236 238 241 242 243 244 244 245 246 249 252 254 256 257 257 256 251 244 239 240 242 240 243 251 252 254 261 265 260 255 254 256 261 268 273 274 272 270 268 265 260 256 255 254 254 254 255 255 256 256 255 254 253 252 250 250 252 253 255 258 261 265 266 263 263 266 271 274 277 280 283 287 291 295 299 303 307 312 315 316 314
233 235 235 235 235 235 238 240 241 243 244 245 246 248 251 253 254 255 255 255 256 255 250 247 246 241 241 248 249 253 262 264 260 257 256 258 263 266 267 269 271 274 276 275 269 262 256 253 253 253 254 255 254 254 254 254 253 251 250 249 251 252 254 257 260 264 267 266 264 264 268 271 274 277 280 283 287 290 294 298 303 307 310 311 310
230 230 235 237 237 236 237 239 240 242 243 244 245 245 247 249 250 251 251 251 251 252 252 251 250 248 246 248 250 253 256 258 261 262 259 258 261 262 261 263 267 272 276 276 274 269 260 255 254 254 254 254 253 252 251 252 252 251 249 248 248 250 252 255 258 261 264 266 266 264 265 269 271 274 277 280 283 286 290 294 299 303 306 307 307
245 235 235 238 240 241 240 241 241 242 243 244 245 245 245 245 245 246 247 248 247 246 247 246 245 246 247 249 252 252 250 251 257 260 260 261 260 258 257 259 263 266 269 270 270 270 267 261 257 256 257 257 257 256 253 252 251 250 249 248 247 248 250 253 255 258 261 263 266 267 266 267 269 272 274 277 280 283 286 290 295 299 303 304 304
267 255 248 243 243 244 246 246 245 245 245 245 246 246 246 246 245 243 241 241 243 243 245 246 244 243 244 247 250 250 250 251 252 254 259 260 259 257 257 257 258 260 262 262 263 268 270 268 264 261 260 261 264 266 264 260 254 250 248 248 248 248 249 251 253 255 258 261 264 268 269 268 268 270 272 274 276 279 282 286 290 295 299 301 301
269 259 255 252 249 247 247 249 250 249 248 248 247 246 246 246 246 245 243 239 238 238 240 243 244 244 244 243 244 245 248 251 252 254 258 260 261 260 259 258 256 255 256 254 256 263 267 266 266 264 260 259 263 267 269 268 261 253 248 247 248 248 248 249 251 252 255 259 262 265 269 269 268 269 270 272 273 276 278 281 286 290 295 298 298
274 268 263 258 253 251 249 249 250 252 253 252 250 249 247 247 247 247 247 246 243 241 240 241 243 244 245 245 245 245 248 250 251 253 256 259 261 261 259 260 260 256 252 249 250 258 262 263 265 264 261 259 258 259 262 266 264 258 251 248 248 248 247 247 248 250 252 256 259 261 265 268 268 267 268 269 271 272 275 278 282 286 291 294 295
275 274 272 268 262 257 254 252 252 253 256 256 256 255 252 252 253 252 252 251 249 247 246 245 244 244 245 246 248 250 250 251 252 253 254 256 258 259 258 259 261 258 253 249 250 255 258 261 262 260 261 263 258 253 255 260 265 263 257 253 252 250 248 246 247 249 251 253 256 258 261 265 266 265 265 266 268 270 272 275 278 282 287 290 291
266 268 271 273 271 269 267 265 264 262 260 259 258 258 257 256 257 258 259 257 256 253 251 249 248 247 247 247 248 250 251 253 254 256 256 255 255 256 256 256 256 257 255 253 254 256 256 258 258 256 260 263 258 252 257 264 266 265 264 263 260 256 252 249 248 248 250 252 253 256 258 261 263 263 262 263 265 267 269 272 275 278 283 286 288
260 260 262 265 267 269 270 271 272 271 268 264 260 259 258 257 258 259 261 262 261 259 256 254 251 250 250 250 250 250 250 249 250 254 258 259 256 255 255 255 256 257 258 258 259 259 258 258 256 256 259 261 258 257 262 268 268 265 266 266 262 260 257 252 249 248 249 250 252 254 255 257 261 262 261 262 263 265 267 269 271 275 279 282 284
262 258 256 256 257 259 262 264 267 269 271 270 269 266 263 260 259 259 260 262 263 262 260 258 256 253 252 252 253 253 252 249 246 248 252 255 257 257 257 257 257 257 258 258 259 260 260 259 258 259 260 259 258 260 263 266 266 265 266 263 256 258 261 258 253 250 250 250 250 252 253 255 258 261 261 262 262 263 264 266 268 272 276 279 281
272 264 259 256 255 256 258 259 261 263 264 267 269 271 271 270 267 264 262 262 262 263 262 260 259 258 257 256 256 256 256 254 251 249 249 248 251 255 257 257 257 257 256 257 258 258 259 260 260 260 260 258 257 261 263 262 261 261 262 259 250 254 263 266 262 256 251 251 251 251 252 253 256 259 260 260 260 261 262 264 266 269 273 276 278
281 277 273 270 267 264 262 260 260 260 260 261 262 265 267 270 272 271 269 266 264 263 263 262 261 260 260 260 260 258 258 257 255 253 251 248 246 248 252 256 259 260 259 259 259 257 257 260 260 260 261 258 254 257 260 259 257 258 260 256 248 255 270 272 270 266 257 252 251 251 251 252 253 256 258 258 257 259 260 261 264 267 270 274 275
292 289 287 286 281 276 270 266 264 263 263 263 263 263 263 265 267 268 269 267 265 264 263 263 263 262 262 262 262 261 260 259 258 256 254 250 246 246 247 249 254 258 259 259 261 259 258 260 261 261 261 256 252 252 254 255 255 255 257 258 254 257 270 271 268 269 265 257 254 253 252 252 252 252 254 254 254 256 257 259 262 265 268 271 272
297 295 294 291 288 284 280 276 273 271 271 270 270 270 269 267 266 265 266 265 264 263 263 264 264 264 264 264 264 264 263 262 261 260 258 254 250 248 246 245 247 252 256 258 260 259 259 261 260 261 261 255 250 250 250 250 254 256 257 258 258 257 262 267 264 263 265 263 260 259 259 257 255 253 252 252 253 254 254 256 259 262 266 269 270
296 295 295 293 290 288 286 283 282 280 279 279 279 279 278 277 274 271 270 267 265 264 264 265 265 265 265 265 266 266 265 264 262 261 260 258 256 254 250 246 244 248 252 256 257 255 255 259 260 259 258 254 250 250 250 249 251 255 257 257 255 254 258 265 265 261 262 266 267 265 267 265 262 257 254 251 252 253 253 254 256 260 263 266 268
294 292 291 291 290 289 289 288 288 287 287 286 286 285 284 283 281 279 277 275 273 270 268 267 266 267 267 267 267 267 266 265 263 262 261 260 259 258 256 252 248 247 250 253 254 253 251 254 257 256 255 253 251 250 251 251 249 250 255 260 259 255 255 258 261 260 261 267 271 268 268 269 267 263 257 253 251 252 253 253 254 257 261 263 266
290 289 288 287 288 289 290 291 291 290 290 290 289 289 287 285 284 282 281 279 279 277 275 273 271 269 268 267 267 267 266 265 264 263 262 261 260 259 258 257 253 249 250 255 257 255 251 249 252 254 254 253 253 252 251 251 252 250 251 256 259 257 254 253 254 257 260 268 272 269 267 269 268 266 262 256 253 252 252 252 253 255 258 260 265
287 286 286 286 287 289 290 291 291 291 291 291 291 290 289 289 287 285 283 280 279 278 277 276 275 273 271 269 268 267 267 266 265 264 263 262 262 260 258 256 254 249 247 255 261 261 255 249 250 254 257 255 254 254 252 251 253 253 248 246 250 253 253 250 250 252 256 263 268 267 267 271 272 271 268 262 256 253 252 253 253 255 256 258 263
285 284 285 286 287 287 288 289 289 290 290 290 290 289 290 290 290 289 287 284 280 277 275 274 273 273 273 272 269 267 267 266 266 266 265 263 262 261 259 255 253 249 243 246 253 258 258 254 252 255 257 256 254 253 254 254 254 255 251 247 248 251 252 250 249 250 251 255 261 263 264 269 274 275 272 268 262 257 256 256 256 256 256 258 261
283 283 284 285 285 285 286 286 287 287 287 288 288 289 290 290 290 290 289 287 284 280 276 273 271 271 270 271 270 268 267 267 267 267 267 265 262 261 260 256 253 248 243 242 244 248 252 253 255 257 257 255 253 253 255 256 256 256 253 250 249 251 252 250 248 247 248 250 253 257 260 263 270 274 275 273 267 263 261 260 259 259 258 259 261
283 283 283 283 283 283 283 283 284 284 285 286 288 289 290 291 291 292 291 290 287 284 280 275 272 270 269 268 268 267 267 267 267 267 267 267 265 263 261 258 255 249 244 242 242 242 245 248 251 256 257 257 257 255 256 259 260 257 253 251 251 253 255 252 248 246 247 248 248 251 255 258 264 272 277 277 273 270 266 262 261 261 261 261 263
284 283 282 281 281 280 281 281 282 284 285 287 288 289 291 293 294 295 295 293 291 287 284 279 275 271 269 267 266 265 265 266 266 267 267 267 267 266 263 260 257 252 246 243 243 241 241 244 247 250 253 257 260 260 259 262 262 258 253 252 253 254 255 254 250 248 248 248 247 248 252 257 262 269 276 278 278 277 272 265 263 262 260 261 265
285 283 281 281 280 279 280 281 282 284 285 287 288 290 292 294 296 296 296 294 292 289 286 282 278 274 270 268 266 264 263 264 264 265 265 265 265 266 265 262 259 255 250 245 242 240 239 240 243 245 248 251 255 260 264 265 263 258 252 252 253 253 254 254 252 250 250 251 249 249 251 256 260 265 271 275 277 278 277 273 270 267 261 259 264
283 282 280 279 278 278 279 280 282 284 286 288 290 292 294 296 296 296 296 294 292 289 286 283 280 277 274 271 268 265 264 263 262 263 263 264 264 264 264 264 261 258 254 248 243 240 239 240 239 240 244 248 249 255 262 265 263 258 252 251 252 252 255 256 254 252 252 253 253 252 252 254 257 261 265 269 272 275 277 276 275 274 268 263 266
281 279 279 278 278 278 279 281 283 285 287 288 290 292 294 295 295 295 295 294 293 290 287 284 281 278 276 273 271 268 266 264 263 262 262 263 264 263 263 264 263 260 257 253 247 243 240 240 240 238 240 243 244 249 257 261 261 256 251 250 250 250 251 253 252 252 253 254 254 253 252 254 257 260 263 265 268 272 275 274 276 278 273 266 266
278 277 278 278 279 280 282 283 285 285 286 287 288 290 292 293 294 295 295 294 293 290 288 285 282 279 277 275 273 271 268 266 265 263 263 263 263 263 262 262 263 262 260 256 253 248 244 241 241 239 238 239 240 244 251 257 258 254 249 247 248 249 248 248 248 248 249 252 255 255 253 252 255 257 259 261 264 269 270 269 273 276 270 263 259
276 277 278 280 281 282 283 284 284 284 285 286 287 289 291 293 293 294 293 293 292 290 288 285 282 280 278 276 274 272 270 267 265 264 263 263 262 262 262 261 261 262 262 260 256 254 250 246 243 240 239 238 239 240 244 250 254 252 248 247 249 249 247 247 248 247 247 250 254 256 255 254 254 255 258 259 262 266 268 265 269 272 266 258 254
276 277 279 280 281 282 283 284 284 284 284 286 289 291 292 292 292 291 291 291 290 289 288 286 284 281 279 277 275 273 271 269 266 265 263 263 262 261 261 260 258 259 260 260 259 257 254 251 248 244 241 239 238 238 240 243 247 247 245 246 248 247 246 248 249 247 246 247 251 254 254 255 257 257 259 259 260 265 266 261 263 272 267 258 253
277 278 279 280 281 282 284 285 285 286 288 290 292 293 292 291 291 291 290 290 289 288 287 285 283 281 280 279 277 275 273 270 268 266 264 263 262 261 260 259 258 257 257 258 259 259 256 253 251 248 245 241 239 237 239 243 245 243 243 244 246 245 244 246 248 249 247 246 251 255 252 252 256 259 259 258 257 264 264 255 255 267 267 259 254
278 279 280 281 283 284 286 287 288 289 291 292 293 292 291 291 291 290 289 289 287 286 284 283 281 280 279 278 277 276 275 273 271 269 266 264 263 261 260 259 258 256 255 255 256 257 257 255 253 251 248 245 242 238 237 240 243 242 242 243 244 245 244 243 246 248 244 240 245 252 250 250 256 260 260 259 258 263 263 254 251 260 261 256 253
280 282 283 284 285 287 287 288 289 291 292 293 293 293 293 292 292 291 289 288 286 284 283 281 280 279 278 277 277 276 276 275 273 272 270 268 266 263 261 259 258 256 254 253 252 253 255 256 256 254 250 248 247 243 237 237 239 241 242 243 243 244 244 243 242 241 238 235 240 247 248 249 255 258 259 260 260 261 261 255 250 254 257 255 251
282 283 284 284 285 286 287 289 291 293 294 295 295 294 294 293 292 291 289 287 286 284 283 281 280 280 280 279 278 278 277 276 274 273 272 271 269 267 264 261 258 256 254 253 251 250 251 253 255 255 253 249 248 247 242 238 237 238 241 242 242 242 242 243 242 239 236 235 239 245 249 249 251 254 256 256 257 259 257 251 248 250 255 257 251
282 282 283 285 287 289 292 294 295 296 296 295 294 294 294 293 291 290 289 287 286 285 284 283 282 282 281 281 280 279 278 276 274 273 272 270 269 267 266 263 260 257 254 252 251 249 248 249 251 254 254 250 246 246 245 242 239 239 240 241 242 243 243 243 243 242 241 241 242 246 250 248 247 249 253 252 252 254 252 249 248 250 252 252 249
282 284 287 291 294 296 298 297 297 296 295 295 295 294 294 293 291 289 288 287 286 286 285 284 284 283 282 282 281 280 279 277 275 272 270 269 268 266 265 264 262 259 256 252 251 249 248 247 248 249 251 250 246 243 243 244 242 241 241 241 242 244 245 244 244 245 246 246 246 248 250 248 246 248 252 252 251 251 250 249 248 246 244 244 244
287 290 292 295 296 297 296 295 295 295 295 296 297 296 295 293 292 290 289 288 287 286 286 285 284 284 283 282 282 282 281 279 276 273 270 267 266 265 264 262 261 259 258 255 252 250 248 246 246 246 247 247 246 243 241 242 243 242 242 242 243 244 245 246 246 247 247 247 248 252 254 253 250 248 250 254 256 254 251 249 247 244 241 241 241
Height
3153 3154 3155 3155 3155 3154 3155 3155 3156 3157 3158 3158 3158 3158 3159 3160 3159 3159 3159 3160 3160 3162 3164 3166 3169 3171 3172 3173 3174 3175 3177 3179 3180 3182 3184 3186 3187 3189 3190 3192 3193 3194 3195 3196 3196 3196 3197 3197 3197 3198 3198 3199 3199 3199 3200 3200 3200 3199 3199 3198 3198 3198 3197 3197 3196 3196 3195 3194 3193 3192 3191 3190 3189 3187 3186 3184 3183 3181 3180 3178 3177 3176 3175 3174 3173
3152 3153 3153 3154 3154 3154 3154 3155 3156 3157 3158 3158 3158 3157 3158 3159 3160 3159 3159 3159 3159 3160 3163 3165 3167 3169 3171 3172 3173 3174 3176 3178 3179 3181 3182 3184 3185 3187 3188 3190 3191 3192 3193 3194 3195 3195 3196 3196 3196 3197 3197 3198 3198 3198 3199 3199 3199 3198 3198 3197 3197 3197 3197 3196 3196 3195 3194 3194 3193 3192 3191 3190 3189 3187 3186 3184 3183 3181 3180 3179 3178 3176 3175 3174 3173
3151 3151 3153 3153 3153 3154 3154 3155 3155 3156 3157 3157 3157 3157 3157 3158 3159 3159 3159 3159 3159 3160 3161 3164 3166 3168 3170 3171 3173 3174 3176 3177 3178 3180 3181 3182 3184 3185 3187 3188 3189 3190 3192 3193 3193 3194 3194 3195 3195 3196 3196 3197 3197 3197 3197 3197 3197 3197 3197 3196 3196 3196 3196 3195 3195 3194 3194 3193 3192 3191 3190 3189 3189 3187 3186 3184 3183 3182 3180 3179 3178 3177 3176 3175 3173
3149 3151 3153 3153 3153 3153 3153 3154 3155 3154 3155 3156 3156 3157 3156 3157 3158 3158 3158 3159 3159 3160 3160 3162 3165 3167 3169 3170 3172 3173 3175 3176 3177 3179 3180 3181 3183 3184 3185 3186 3187 3189 3190 3191 3191 3192 3193 3193 3194 3195 3195 3196 3196 3196 3196 3196 3196 3196 3196 3195 3195 3195 3194 3194 3194 3194 3193 3192 3191 3190 3189 3189 3188 3187 3186 3184 3183 3182 3181 3179 3178 3177 3176 3175 3174
3149 3150 3151 3152 3152 3152 3152 3153 3153 3153 3153 3155 3155 3156 3156 3156 3157 3157 3158 3158 3159 3160 3161 3162 3164 3166 3168 3169 3170 3172 3173 3175 3177 3178 3179 3180 3181 3182 3184 3185 3186 3187 3188 3189 3190 3190 3191 3192 3193 3193 3194 3194 3195 3195 3195 3195 3195 3195 3194 3194 3194 3193 3193 3193 3193 3192 3192 3191 3190 3190 3189 3188 3187 3186 3185 3184 3183 3182 3181 3180 3178 3177 3176 3175 3174
3148 3148 3148 3149 3150 3151 3151 3151 3152 3152 3152 3153 3154 3155 3155 3156 3156 3157 3157 3157 3158 3159 3160 3161 3163 3165 3167 3168 3169 3170 3172 3173 3175 3177 3178 3179 3180 3181 3182 3183 3184 3185 3186 3188 3188 3189 3190 3191 3192 3192 3192 3193 3193 3193 3193 3193 3193 3193 3193 3193 3192 3192 3192 3192 3192 3191 3191 3190 3189 3189 3188 3187 3187 3186 3185 3184 3183 3182 3181 3180 3178 3177 3176 3175 3174
3146 3146 3145 3146 3149 3150 3149 3149 3150 3151 3151 3152 3153 3154 3155 3155 3155 3156 3157 3157 3157 3158 3159 3160 3161 3163 3165 3166 3168 3169 3170 3171 3173 3175 3176 3177 3178 3180 3181 3181 3183 3184 3185 3186 3187 3188 3189 3190 3190 3191 3191 3191 3191 3192 3191 3192 3192 3192 3191 3191 3191 3190 3190 3190 3190 3190 3190 3189 3188 3187 3187 3186 3186 3185 3184 3183 3182 3181 3180 3179 3178 3177 3176 3176 3175
3144 3144 3144 3144 3146 3148 3147 3147 3149 3149 3150 3151 3152 3153 3154 3154 3154 3154 3155 3156 3156 3157 3158 3159 3160 3162 3164 3165 3166 3167 3168 3169 3170 3172 3174 3175 3176 3178 3179 3180 3181 3182 3183 3184 3185 3186 3187 3188 3188 3189 3190 3190 3190 3190 3189 3190 3190 3190 3190 3190 3189 3189 3189 3189 3188 3188 3188 3187 3187 3186 3186 3185 3185 3184 3184 3183 3182 3181 3180 3179 3178 3177 3177 3176 3175
3143 3143 3143 3143 3143 3145 3146 3146 3147 3148 3149 3150 3151 3152 3153 3153 3153 3154 3154 3155 3155 3156 3157 3158 3159 3161 3162 3164 3165 3166 3167 3167 3168 3170 3172 3173 3174 3175 3177 3178 3179 3180 3180 3182 3183 3184 3185 3185 3186 3186 3187 3187 3188 3188 3188 3187 3188 3188 3188 3188 3188 3188 3188 3187 3187 3187 3187 3186 3185 3185 3185 3184 3184 3184 3183 3182 3181 3180 3180 3179 3178 3177 3176 3176 3175
3141 3141 3142 3143 3142 3143 3145 3145 3145 3146 3148 3149 3150 3151 3151 3151 3152 3153 3153 3154 3154 3155 3156 3157 3158 3159 3160 3161 3162 3164 3164 3165 3166 3167 3169 3170 3172 3173 3175 3176 3177 3178 3178 3179 3180 3181 3182 3183 3183 3184 3185 3185 3185 3186 3186 3185 3186 3186 3186 3187 3186 3186 3186 3186 3185 3185 3185 3185 3184 3184 3184 3183 3183 3183 3182 3181 3181 3180 3179 3178 3178 3177 3176 3175 3175
3138 3139 3141 3142 3141 3142 3143 3142 3142 3144 3147 3148 3149 3150 3150 3150 3150 3151 3152 3153 3153 3153 3155 3156 3157 3158 3159 3160 3160 3161 3162 3163 3164 3165 3166 3167 3169 3171 3172 3173 3175 3176 3176 3177 3178 3179 3180 3180 3181 3182 3182 3182 3183 3183 3183 3183 3183 3184 3184 3184 3184 3184 3184 3184 3184 3183 3183 3183 3183 3182 3182 3182 3182 3181 3181 3180 3180 3179 3178 3178 3177 3177 3176 3175 3174
3136 3137 3139 3140 3140 3140 3141 3141 3141 3142 3145 3147 3147 3148 3149 3149 3148 3148 3150 3152 3153 3153 3154 3155 3157 3157 3158 3158 3159 3159 3160 3161 3162 3163 3164 3165 3166 3168 3169 3170 3171 3173 3174 3174 3175 3176 3177 3178 3178 3179 3179 3179 3180 3180 3180 3181 3181 3181 3182 3182 3182 3181 3181 3181 3181 3181 3181 3181 3181 3180 3180 3180 3180 3180 3180 3179 3179 3178 3177 3177 3176 3176 3175 3174 3174
3134 3135 3137 3138 3138 3138 3139 3140 3140 3141 3143 3144 3145 3146 3147 3147 3147 3147 3148 3150 3152 3153 3153 3154 3156 3157 3157 3157 3158 3158 3158 3159 3160 3161 3162 3163 3164 3165 3166 3168 3169 3169 3170 3171 3172 3173 3174 3175 3175 3176 3176 3177 3177 3177 3177 3178 3178 3179 3179 3179 3179 3179 3179 3179 3179 3179 3179 3179 3179 3178 3178 3178 3178 3178 3178 3178 3177 3177 3176 3175 3175 3175 3174 3173 3173
3131 3133 3135 3136 3136 3136 3137 3139 3140 3140 3141 3142 3143 3144 3144 3145 3146 3146 3147 3148 3150 3151 3152 3153 3154 3156 3155 3155 3156 3156 3157 3158 3158 3159 3160 3161 3162 3163 3164 3165 3166 3167 3167 3167 3169 3170 3170 3171 3172 3173 3173 3174 3174 3174 3174 3175 3175 3176 3176 3177 3177 3177 3176 3177 3177 3176 3177 3177 3177 3176 3176 3176 3176 3176 3176 3176 3176 3175 3174 3174 3174 3174 3173 3172 3172
3130 3131 3132 3133 3134 3135 3135 3137 3138 3139 3140 3140 3141 3142 3143 3144 3144 3145 3146 3147 3148 3149 3150 3152 3152 3154 3154 3153 3154 3154 3155 3156 3157 3158 3158 3159 3160 3161 3161 3162 3163 3163 3164 3165 3166 3167 3167 3168 3169 3169 3170 3170 3171 3171 3172 3172 3173 3173 3173 3174 3174 3174 3174 3174 3174 3174 3174 3175 3175 3174 3174 3174 3174 3174 3174 3174 3174 3173 3173 3172 3172 3172 3172 3171 3170
3128 3129 3130 3131 3132 3132 3133 3134 3135 3136 3137 3138 3139 3140 3141 3142 3142 3143 3144 3145 3146 3146 3149 3150 3150 3151 3151 3152 3152 3151 3152 3154 3155 3156 3156 3157 3158 3159 3159 3159 3159 3160 3161 3162 3163 3164 3164 3165 3165 3166 3166 3167 3168 3168 3169 3169 3170 3170 3170 3171 3171 3172 3172 3172 3172 3172 3171 3172 3172 3172 3172 3172 3172 3171 3172 3172 3172 3171 3171 3171 3171 3171 3170 3170 3169
3126 3127 3127 3128 3129 3130 3130 3131 3133 3133 3134 3135 3136 3137 3138 3139 3140 3141 3141 3142 3143 3144 3147 3148 3147 3148 3149 3149 3149 3149 3150 3151 3152 3153 3154 3155 3156 3157 3157 3157 3156 3156 3157 3158 3160 3161 3162 3162 3162 3162 3163 3163 3164 3165 3165 3166 3166 3167 3167 3168 3168 3169 3169 3169 3169 3169 3168 3168 3169 3170 3170 3169 3169 3169 3169 3169 3170 3169 3169 3169 3169 3169 3169 3168 3167
3125 3125 3126 3126 3127 3128 3128 3129 3130 3131 3132 3133 3134 3134 3135 3136 3136 3138 3138 3139 3140 3141 3143 3145 3145 3146 3147 3147 3146 3147 3149 3149 3148 3149 3150 3152 3153 3154 3155 3155 3154 3154 3154 3155 3156 3157 3158 3159 3159 3159 3159 3160 3160 3161 3162 3163 3163 3164 3164 3165 3165 3166 3166 3167 3167 3166 3166 3165 3165 3166 3167 3167 3166 3167 3167 3167 3167 3167 3167 3167 3167 3167 3167 3166 3166
3124 3124 3125 3125 3125 3126 3126 3127 3128 3128 3129 3130 3131 3132 3132 3133 3133 3135 3136 3136 3137 3138 3139 3140 3141 3143 3144 3144 3144 3145 3147 3147 3146 3146 3146 3148 3150 3151 3152 3152 3152 3151 3152 3153 3154 3154 3155 3156 3156 3156 3156 3156 3157 3158 3159 3159 3160 3161 3161 3161 3162 3162 3163 3163 3164 3164 3163 3162 3162 3163 3164 3164 3164 3164 3164 3164 3165 3165 3165 3165 3165 3165 3165 3164 3164
3124 3124 3124 3124 3124 3125 3125 3125 3126 3126 3127 3128 3129 3129 3130 3130 3131 3131 3132 3133 3134 3135 3136 3137 3137 3139 3140 3141 3142 3143 3143 3143 3143 3143 3143 3144 3146 3148 3149 3149 3149 3149 3149 3150 3151 3152 3153 3153 3154 3154 3154 3154 3154 3155 3156 3156 3157 3158 3158 3158 3158 3158 3159 3159 3160 3160 3160 3159 3159 3160 3160 3161 3161 3161 3161 3162 3162 3162 3162 3162 3162 3162 3162 3162 3162
3123 3123 3123 3123 3124 3124 3124 3124 3124 3125 3125 3126 3126 3127 3128 3128 3128 3128 3129 3130 3131 3132 3133 3133 3134 3135 3136 3137 3138 3139 3139 3139 3139 3140 3141 3141 3142 3145 3146 3146 3146 3146 3147 3147 3148 3149 3150 3151 3151 3152 3152 3151 3151 3152 3153 3153 3154 3154 3155 3155 3154 3154 3155 3155 3155 3156 3156 3156 3157 3157 3157 3157 3158 3158 3158 3159 3159 3160 3160 3160 3160 3160 3160 3160 3159
3122 3122 3122 3123 3123 3123 3123 3123 3123 3123 3123 3124 3124 3125 3125 3126 3126 3126 3126 3127 3128 3129 3129 3130 3131 3132 3132 3133 3133 3134 3135 3135 3136 3137 3138 3138 3139 3141 3142 3142 3142 3143 3144 3144 3145 3145 3146 3147 3148 3149 3149 3149 3148 3149 3150 3150 3151 3151 3151 3151 3151 3150 3151 3151 3151 3152 3152 3153 3154 3155 3154 3153 3154 3155 3155 3156 3156 3157 3157 3157 3157 3157 3158 3158 3157
3120 3120 3120 3121 3121 3121 3121 3122 3122 3122 3122 3122 3123 3123 3123 3124 3124 3124 3124 3124 3125 3126 3126 3127 3128 3128 3129 3129 3129 3130 3130 3131 3133 3134 3134 3135 3135 3136 3138 3138 3138 3139 3140 3140 3141 3141 3142 3143 3145 3145 3146 3146 3146 3146 3147 3148 3148 3148 3148 3148 3148 3148 3147 3147 3148 3148 3148 3149 3150 3151 3151 3150 3150 3151 3152 3152 3153 3154 3154 3154 3155 3155 3155 3156 3155
3118 3118 3118 3119 3119 3119 3119 3120 3120 3120 3121 3121 3121 3121 3121 3122 3122 3122 3121 3121 3122 3123 3123 3124 3124 3125 3125 3125 3126 3126 3127 3127 3129 3130 3130 3131 3132 3131 3133 3135 3134 3134 3136 3136 3136 3137 3138 3139 3140 3141 3142 3142 3142 3143 3144 3145 3145 3146 3146 3146 3146 3145 3145 3145 3145 3145 3145 3145 3146 3148 3148 3147 3146 3147 3148 3149 3150 3151 3151 3152 3152 3152 3153 3153 3153
3117 3117 3117 3117 3117 3117 3117 3118 3118 3118 3118 3119 3119 3119 3119 3119 3119 3119 3119 3119 3119 3120 3120 3120 3121 3122 3122 3122 3122 3123 3124 3125 3125 3126 3127 3128 3127 3127 3130 3131 3130 3130 3132 3132 3132 3133 3134 3135 3136 3137 3138 3139 3139 3139 3140 3141 3142 3143 3143 3143 3143 3142 3142 3142 3142 3142 3142 3142 3143 3144 3145 3144 3143 3143 3145 3146 3147 3148 3148 3149 3149 3150 3150 3151 3150
3115 3115 3116 3115 3115 3115 3115 3116 3116 3116 3116 3116 3116 3117 3117 3117 3117 3117 3117 3117 3117 3117 3117 3117 3118 3118 3119 3119 3120 3120 3121 3122 3122 3122 3123 3123 3123 3124 3125 3126 3125 3126 3127 3128 3129 3128 3129 3131 3132 3133 3134 3135 3136 3136 3137 3137 3138 3139 3140 3140 3140 3139 3139 3139 3139 3139 3139 3139 3139 3140 3141 3141 3140 3140 3142 3143 3144 3144 3145 3146 3146 3147 3148 3148 3148
3113 3113 3113 3113 3114 3114 3114 3114 3113 3113 3114 3114 3114 3114 3114 3115 3115 3115 3115 3114 3114 3114 3114 3114 3115 3115 3115 3116 3116 3117 3118 3118 3118 3118 3118 3118 3119 3120 3121 3120 3120 3121 3122 3123 3123 3123 3125 3128 3128 3129 3130 3130 3132 3132 3133 3134 3134 3135 3136 3137 3137 3137 3136 3136 3136 3136 3136 3136 3136 3137 3137 3138 3138 3137 3138 3139 3140 3141 3141 3142 3143 3144 3145 3145 3145
3110 3110 3110 3110 3111 3111 3111 3111 3111 3111 3111 3111 3112 3112 3112 3112 3112 3112 3112 3112 3112 3112 3112 3112 3112 3112 3112 3112 3113 3113 3114 3114 3114 3114 3114 3115 3115 3116 3116 3116 3116 3116 3117 3117 3117 3118 3121 3122 3123 3124 3126 3127 3127 3128 3129 3130 3131 3131 3132 3133 3133 3134 3133 3133 3133 3133 3133 3133 3133 3133 3133 3134 3134 3134 3135 3135 3136 3137 3138 3139 3140 3141 3141 3142 3142
3106 3106 3107 3107 3107 3108 3108 3108 3108 3108 3108 3108 3109 3109 3110 3110 3110 3110 3110 3110 3110 3109 3109 3109 3109 3108 3108 3109 3109 3110 3110 3110 3110 3110 3110 3110 3111 3111 3112 3112 3111 3111 3111 3111 3112 3114 3117 3117 3118 3120 3122 3122 3123 3124 3124 3124 3126 3127 3128 3129 3130 3131 3131 3131 3131 3131 3130 3130 3130 3130 3130 3130 3131 3131 3132 3132 3133 3134 3134 3136 3137 3137 3138 3138 3139
3103 3103 3103 3104 3104 3104 3104 3104 3104 3105 3105 3105 3106 3106 3107 3107 3107 3107 3107 3107 3107 3107 3106 3106 3106 3105 3105 3105 3105 3106 3106 3106 3106 3106 3106 3106 3106 3106 3107 3107 3107 3106 3107 3106 3107 3110 3112 3112 3114 3115 3116 3118 3118 3118 3119 3120 3121 3123 3124 3125 3127 3127 3128 3128 3128 3128 3128 3127 3127 3127 3127 3127 3127 3128 3129 3129 3130 3130 3131 3132 3133 3134 3134 3135 3135
3101 3100 3100 3100 3100 3100 3101 3101 3101 3101 3101 3102 3102 3103 3103 3103 3103 3103 3103 3103 3103 3103 3103 3102 3102 3102 3102 3102 3102 3102 3102 3102 3102 3102 3102 3102 3101 3102 3102 3103 3103 3102 3103 3102 3101 3104 3107 3108 3109 3111 3111 3112 3113 3113 3114 3115 3116 3118 3119 3120 3122 3124 3124 3124 3125 3125 3125 3125 3124 3124 3124 3124 3124 3125 3126 3127 3127 3127 3128 3129 3129 3130 3131 3131 3131
3099 3099 3098 3097 3097 3097 3097 3097 3097 3098 3098 3098 3099 3099 3099 3099 3099 3099 3099 3099 3099 3099 3099 3099 3098 3098 3098 3098 3098 3098 3098 3097 3098 3098 3098 3098 3097 3097 3098 3098 3099 3099 3099 3098 3096 3098 3103 3104 3104 3106 3107 3107 3108 3108 3109 3110 3111 3113 3115 3116 3117 3119 3120 3121 3122 3122 3121 3121 3121 3122 3122 3122 3122 3122 3122 3123 3124 3124 3125 3126 3126 3127 3127 3127 3128
3098 3097 3096 3095 3095 3094 3094 3094 3094 3094 3094 3095 3095 3095 3095 3095 3095 3095 3095 3094 3095 3095 3095 3095 3094 3094 3093 3094 3094 3094 3093 3093 3093 3093 3093 3093 3093 3093 3093 3093 3094 3095 3095 3094 3093 3094 3098 3100 3100 3101 3102 3102 3102 3103 3104 3105 3106 3108 3112 3112 3112 3114 3115 3117 3118 3118 3118 3118 3118 3119 3119 3119 3119 3119 3119 3120 3120 3121 3122 3123 3123 3123 3124 3124 3124
3096 3095 3094 3094 3093 3093 3092 3092 3091 3091 3091 3091 3092 3092 3092 3092 3092 3092 3091 3091 3091 3090 3090 3090 3089 3089 3088 3089 3090 3089 3088 3088 3089 3089 3089 3089 3089 3089 3089 3089 3089 3090 3091 3090 3090 3090 3092 3095 3096 3096 3097 3097 3098 3099 3100 3100 3101 3103 3105 3107 3107 3108 3110 3112 3113 3114 3114 3114 3115 3115 3116 3116 3116 3116 3116 3117 3117 3118 3119 3119 3120 3120 3121 3121 3121
3093 3093 3092 3091 3091 3090 3090 3089 3089 3088 3088 3088 3088 3089 3089 3089 3088 3088 3088 3087 3087 3087 3086 3086 3085 3084 3083 3084 3084 3084 3083 3083 3084 3084 3084 3085 3084 3084 3084 3085 3085 3085 3086 3086 3085 3085 3086 3089 3090 3091 3092 3092 3093 3095 3095 3096 3096 3097 3098 3101 3102 3103 3105 3107 3109 3110 3110 3111 3111 3112 3112 3113 3113 3113 3113 3114 3114 3115 3116 3116 3117 3118 3118 3117 3117
3091 3090 3089 3089 3088 3087 3087 3086 3086 3085 3085 3085 3085 3085 3085 3085 3085 3085 3084 3083 3083 3083 3082 3081 3080 3080 3079 3079 3079 3079 3078 3078 3079 3079 3079 3079 3079 3079 3079 3080 3080 3081 3082 3081 3081 3081 3081 3082 3084 3085 3087 3087 3088 3089 3090 3091 3092 3092 3093 3094 3095 3097 3099 3102 3104 3104 3105 3106 3108 3108 3109 3109 3110 3110 3111 3111 3112 3112 3113 3113 3114 3115 3115 3114 3114
3088 3087 3086 3085 3085 3084 3083 3083 3082 3082 3082 3081 3081 3081 3081 3081 3080 3080 3079 3079 3078 3078 3077 3077 3076 3075 3074 3074 3074 3074 3072 3072 3073 3074 3074 3074 3074 3074 3074 3075 3076 3076 3077 3077 3076 3076 3076 3077 3078 3080 3081 3082 3082 3083 3085 3086 3087 3088 3088 3089 3090 3091 3093 3095 3098 3099 3101 3102 3103 3105 3105 3106 3106 3107 3108 3109 3109 3109 3109 3110 3110 3111 3111 3111 3111
3085 3084 3083 3082 3081 3081 3080 3080 3079 3079 3078 3078 3077 3077 3076 3076 3075 3075 3074 3073 3073 3072 3072 3071 3071 3070 3069 3069 3069 3069 3068 3067 3067 3068 3068 3068 3068 3068 3069 3070 3071 3071 3071 3072 3072 3072 3071 3072 3073 3074 3076 3077 3078 3078 3080 3081 3082 3083 3083 3084 3085 3086 3088 3090 3092 3094 3096 3097 3099 3101 3102 3102 3102 3103 3104 3105 3106 3106 3106 3106 3107 3107 3108 3108 3108
3081 3080 3079 3079 3078 3077 3077 3076 3076 3075 3075 3074 3073 3073 3072 3071 3070 3069 3069 3068 3067 3066 3066 3065 3065 3064 3064 3063 3063 3063 3063 3062 3062 3062 3062 3062 3062 3062 3063 3064 3065 3065 3066 3067 3067 3067 3067 3067 3068 3069 3070 3072 3074 3073 3075 3076 3076 3077 3079 3080 3080 3082 3083 3085 3087 3089 3091 3093 3095 3096 3097 3098 3098 3099 3100 3101 3102 3102 3102 3103 3103 3103 3104 3104 3105
3078 3077 3076 3075 3074 3074 3073 3073 3072 3072 3071 3070 3069 3068 3067 3066 3065 3064 3063 3062 3061 3060 3060 3059 3059 3058 3058 3057 3057 3057 3057 3057 3056 3056 3056 3056 3056 3056 3057 3057 3058 3059 3060 3061 3061 3062 3062 3062 3063 3064 3065 3066 3068 3069 3070 3071 3071 3073 3075 3076 3076 3077 3079 3080 3082 3085 3086 3088 3090 3091 3092 3093 3094 3095 3096 3097 3098 3098 3099 3099 3099 3099 3100 3100 3101
3074 3073 3072 3071 3071 3070 3070 3069 3068 3068 3067 3066 3065 3064 3062 3061 3060 3058 3057 3056 3055 3054 3054 3053 3053 3052 3052 3051 3051 3051 3051 3051 3050 3050 3051 3051 3050 3050 3051 3051 3052 3053 3054 3055 3055 3056 3056 3057 3058 3060 3060 3060 3062 3064 3065 3066 3068 3070 3071 3071 3071 3073 3074 3075 3077 3079 3082 3083 3085 3086 3087 3089 3090 3090 3091 3092 3093 3094 3095 3095 3095 3095 3096 3096 3098
3071 3069 3068 3067 3067 3066 3065 3065 3064 3063 3062 3061 3060 3059 3058 3056 3054 3053 3052 3051 3050 3048 3048 3047 3047 3046 3046 3045 3045 3045 3045 3044 3044 3044 3045 3045 3045 3044 3045 3046 3046 3046 3047 3048 3049 3050 3050 3051 3052 3054 3055 3055 3058 3059 3060 3062 3064 3065 3066 3067 3068 3069 3069 3070 3072 3074 3077 3078 3080 3081 3082 3084 3085 3086 3087 3088 3089 3090 3091 3091 3092 3093 3092 3093 3095
3067 3065 3064 3063 3062 3062 3061 3060 3059 3058 3057 3056 3055 3054 3052 3050 3049 3047 3046 3045 3044 3043 3042 3041 3041 3040 3040 3039 3038 3038 3038 3038 3038 3038 3038 3039 3039 3039 3039 3040 3040 3040 3040 3041 3042 3044 3044 3045 3046 3048 3049 3050 3053 3054 3055 3057 3059 3060 3061 3063 3063 3064 3064 3066 3068 3070 3072 3075 3075 3076 3078 3079 3081 3081 3083 3084 3085 3085 3086 3087 3089 3090 3089 3090 3090
3063 3062 3061 3059 3058 3057 3057 3056 3055 3053 3052 3051 3050 3048 3047 3045 3043 3041 3040 3039 3038 3037 3036 3034 3034 3034 3033 3033 3032 3032 3032 3032 3032 3032 3031 3032 3032 3032 3032 3033 3034 3034 3033 3034 3035 3037 3038 3038 3039 3041 3043 3044 3047 3049 3050 3051 3053 3054 3055 3057 3058 3059 3060 3062 3063 3065 3068 3070 3070 3071 3073 3075 3076 3077 3078 3079 3080 3081 3081 3082 3084 3086 3086 3086 3086
3059 3058 3057 3055 3054 3053 3052 3050 3049 3048 3046 3045 3044 3043 3041 3039 3037 3035 3033 3032 3031 3031 3030 3028 3028 3027 3026 3026 3026 3026 3026 3025 3025 3025 3025 3025 3025 3025 3026 3026 3027 3027 3027 3027 3028 3029 3031 3032 3032 3034 3037 3039 3040 3043 3045 3046 3047 3048 3049 3051 3053 3054 3055 3056 3058 3061 3063 3064 3065 3066 3068 3069 3070 3071 3072 3074 3075 3076 3077 3078 3081 3082 3082 3082 3082
3055 3054 3053 3051 3049 3048 3046 3045 3043 3042 3041 3040 3038 3036 3035 3033 3031 3029 3027 3025 3025 3024 3023 3022 3021 3020 3020 3019 3019 3019 3019 3018 3018 3018 3017 3017 3018 3018 3018 3018 3020 3021 3021 3021 3022 3022 3023 3024 3025 3028 3031 3033 3034 3037 3039 3040 3040 3042 3043 3045 3047 3049 3049 3050 3052 3054 3056 3059 3060 3061 3061 3063 3066 3066 3067 3069 3070 3071 3072 3075 3077 3078 3078 3077 3078
3051 3050 3048 3046 3044 3043 3041 3040 3038 3037 3036 3034 3032 3030 3028 3026 3024 3022 3020 3019 3018 3017 3016 3015 3014 3014 3013 3013 3012 3012 3011 3011 3011 3010 3010 3009 3009 3010 3011 3011 3012 3014 3014 3015 3016 3016 3016 3017 3018 3020 3024 3026 3027 3030 3032 3033 3034 3036 3038 3039 3041 3042 3043 3044 3045 3047 3050 3053 3055 3055 3056 3058 3061 3061 3062 3064 3065 3066 3068 3070 3072 3073 3073 3074 3074
3047 3046 3044 3042 3040 3038 3037 3035 3033 3032 3030 3028 3026 3024 3022 3020 3018 3016 3014 3012 3011 3010 3009 3009 3008 3007 3006 3006 3005 3005 3004 3004 3004 3003 3002 3001 3001 3001 3002 3003 3004 3005 3007 3008 3009 3009 3010 3010 3011 3013 3017 3020 3021 3023 3025 3027 3028 3030 3032 3033 3034 3036 3038 3039 3040 3042 3045 3047 3049 3050 3051 3053 3055 3056 3058 3059 3060 3061 3063 3064 3066 3067 3069 3070 3070
3043 3041 3039 3038 3036 3034 3032 3030 3028 3026 3025 3023 3021 3018 3016 3013 3011 3009 3007 3005 3004 3002 3002 3001 3000 3000 2999 2998 2997 2997 2996 2996 2996 2995 2995 2993 2992 2992 2993 2994 2995 2996 2999 3001 3001 3002 3003 3004 3005 3006 3009 3012 3014 3016 3018 3020 3022 3024 3025 3025 3027 3030 3032 3034 3035 3037 3041 3043 3044 3045 3046 3047 3050 3051 3052 3053 3054 3056 3057 3059 3060 3062 3064 3066 3066
3038 3036 3035 3033 3030 3028 3026 3025 3023 3021 3020 3018 3015 3013 3010 3008 3005 3003 3001 2999 2997 2996 2995 2994 2993 2992 2990 2990 2989 2988 2987 2987 2987 2987 2986 2984 2983 2983 2983 2984 2985 2987 2990 2993 2994 2995 2996 2997 2999 3000 3001 3005 3007 3009 3012 3013 3016 3017 3017 3018 3022 3025 3026 3028 3030 3033 3036 3037 3040 3041 3042 3043 3045 3047 3048 3048 3049 3050 3052 3054 3056 3058 3059 3060 3060
3033 3031 3029 3028 3026 3024 3022 3021 3019 3017 3014 3012 3010 3007 3005 3003 3000 2997 2995 2992 2990 2989 2987 2986 2984 2983 2982 2981 2980 2979 2978 2978 2977 2977 2977 2975 2973 2973 2973 2973 2974 2977 2981 2984 2986 2987 2988 2989 2992 2993 2994 2997 3000 3003 3005 3007 3009 3010 3011 3014 3017 3018 3020 3023 3027 3028 3029 3031 3037 3039 3039 3040 3042 3043 3043 3043 3044 3046 3047 3049 3051 3053 3054 3054 3055